Regional Weather Roundup
Issued by NWS Raleigh/Durham, NC

Home | Current Version | Previous Version | Text Only | Print | Product List | Glossary On
Versions: 1 2 3 4 5 6 7 8 9 10 11 12 13 14 15 16 17 18 19 20 21 22 23 24 25 26 27 28
000
ASUS42 KRAH 292310
RWRRAH
NORTH CAROLINA WEATHER ROUNDUP
NATIONAL WEATHER SERVICE RALEIGH NC
700 PM EDT SUN MAY 29 2016

NOTE: "FAIR" INDICATES FEW OR NO CLOUDS BELOW 12,000 FEET WITH NO
SIGNIFICANT WEATHER AND/OR OBSTRUCTIONS TO VISIBILITY.

NCZ001-053-055-056-065-067-300000-
WESTERN NORTH CAROLINA

CITY           SKY/WX    TMP DP  RH WIND       PRES   REMARKS
ASHEVILLE      CLOUDY    72  56  57 CALM      30.11S
JEFFERSON      CLOUDY    63  51  65 CALM      30.15F
MORGANTON      CLOUDY    72  61  69 NW3       30.11F
HICKORY        CLOUDY    73  59  61 N8        30.05F
RUTHERFORDTON  CLOUDY    71  59  66 N7        30.07F
MOUNT AIRY     CLOUDY    71  61  69 E6        30.10F
BOONE          DRIZZLE   64  52  64 CALM      30.16S
$$

NCZ021-022-025-041-071-084-088-300000-
CENTRAL NORTH CAROLINA

CITY           SKY/WX    TMP DP  RH WIND       PRES   REMARKS
CHARLOTTE      PTSUNNY   74  60  61 N14       30.04S
GREENSBORO     CLOUDY    69  58  67 N9        30.07S
WINSTON-SALEM  CLOUDY    68  58  70 NE10      30.09F
RALEIGH-DURHAM CLOUDY    70  67  90 N6        30.02F
FORT BRAGG     PTSUNNY   73  72  94 N3        29.98F
FAYETTEVILLE   CLOUDY    75  71  87 N6        29.98F
BURLINGTON     CLOUDY    70  62  76 N9        30.06F
LAURINBURG     LGT RAIN  73  71  93 NE7       29.98S
$$

NCZ011-015-027-028-043-044-047-080-103-300000-
NORTHEASTERN NORTH CAROLINA

CITY           SKY/WX    TMP DP  RH WIND       PRES   REMARKS
ROCKY MT-WILSO MOSUNNY   80  73  79 CALM      30.00F
GREENVILLE     MOSUNNY   82  72  69 S9        30.03R
WASHINGTON     CLOUDY    81  71  73 SE8       30.01S
ELIZABETH CITY MOSUNNY   79  72  79 SE10      30.04F
MANTEO         NOT AVBL
CAPE HATTERAS  LGT RAIN  76  73  91 S16       30.05S
$$

NCZ078-087-090-091-093-098-101-300000-
SOUTHEASTERN NORTH CAROLINA

CITY           SKY/WX    TMP DP  RH WIND       PRES   REMARKS
LUMBERTON      PTSUNNY   82  71  69 E8        29.96R
GOLDSBORO      NOT AVBL
KINSTON        PTSUNNY   82  70  65 SE10      30.02R
KENANSVILLE    LGT RAIN  76  73  91 CALM      30.01S
NEW BERN       CLOUDY    79  70  74 SE8       30.03S
CHERRY POINT   CLOUDY    79  72  79 SE10      30.03S
BEAUFORT       MOSUNNY   78  73  84 SE9       30.03S
JACKSONVILLE   CLOUDY    77  73  87 SE10      30.01R
WILMINGTON     MOSUNNY   78  70  76 SE8       29.99R
$$





USA.gov is the U.S. government's official web portal to all federal, state and local government web resources and services.